Location: Gaast
(52.9002°N, 5.8891°E)
Time: 10:25:37
(UTC+00:00)

SL-12 R/B(2) - Pass Details

Date: 18 November 2025
Orbit: 1173 x 2175 km, 63.4° (Epoch: 12 December)

Event Time Altitude Azimuth Distance (km) Brightness Sun altitude
Rises 17:16:46 0° 211° (SSW) 4,211 7.5 -14.6°
Reaches altitude 10° 17:19:21 10° 210° (SSW) 3,325 6.9 -15.0°
Maximum altitude 17:27:22 71° 128° (SE) 1,564 4.4 -16.2°
Enters shadow 17:35:43 16° 49° (NE) 3,554 5.9 -17.4°
